Vorticity
19 19 10 36 19 33 16 -1 -6 4 1 -1 19 15 3 1 -17 -17 -3 16 13 14 -10 23 6 3 -2 17 26 14 4 11 -7 -12 -1 3 -2 13 7 11 2 5 14 12
26 27 -1 9 25 10 6 5 10 25 23 34 34 28 22 0 8 -10 8 -23 -20 -12 29 5 10 9 7 10 14 16 15 11 5 0 -2 -2 9 4 17 19 8 2 7 10
17 24 -4 19 -0 13 18 -0 -5 23 19 11 9 19 15 13 19 19 -2 18 32 13 -16 1 18 19 5 6 13 11 14 9 15 21 16 9 6 -3 20 9 17 4 0 4
20 -2 5 15 12 25 1 3 5 3 11 5 -2 2 11 33 32 41 27 20 31 30 20 11 20 23 21 12 0 7 -1 -8 -8 -9 2 4 3 8 16 -4 9 26 4 1
-27 13 12 14 14 16 15 12 10 1 8 23 9 34 -2 45 31 22 6 14 13 17 16 19 19 12 13 9 26 23 35 11 17 22 13 13 16 17 9 3 16 22 10 3
21 24 21 23 28 13 23 21 14 27 34 43 1 12 28 17 42 6 -1 -4 -4 10 22 18 14 4 11 7 7 -3 12 18 18 22 16 13 18 15 6 5 12 20 23 2
39 23 -8 -20 16 20 19 -18 36 28 10 -8 23 51 -38 -32 50 8 12 20 2 33 0 12 9 16 15 14 4 11 22 20 17 10 10 29 21 8 3 16 17 10 20 10
0 -9 -1 36 32 17 18 25 -26 15 -7 -15 59 12 9 26 30 13 5 -3 0 11 9 31 15 13 9 14 15 27 20 21 6 3 29 15 10 1 13 17 19 16 25 17
21 8 45 -38 51 31 -16 6 24 23 50 37 7 3 -2 26 36 49 44 16 25 23 33 26 23 20 25 27 25 18 22 13 10 2 19 12 9 4 5 3 3 3 10 7
1 20 15 27 14 -17 19 21 10 9 11 14 18 -10 -6 23 20 28 20 44 34 20 47 4 24 10 18 10 13 21 25 16 10 4 5 12 17 6 5 7 9 11 7 1
31 17 -51 30 0 -4 -2 -21 15 35 6 3 10 -0 20 22 11 -0 24 17 28 28 35 35 36 31 33 23 28 19 16 24 10 13 3 4 16 10 2 17 -4 21 2 9
6 20 -6 36 25 -4 17 -9 56 7 11 7 11 -8 26 16 15 18 15 28 26 24 -0 9 22 27 39 41 24 23 26 18 -1 22 10 5 14 9 1 -0 19 0 9 6
-2 -20 17 5 3 -25 1 14 29 54 64 6 6 11 28 8 4 0 6 -1 5 18 13 19 25 3 13 31 49 43 25 -1 38 7 4 24 13 4 4 6 6 12 6 8
14 -2 23 -14 -12 9 -1 -6 23 44 34 -1 62 7 -3 12 6 6 5 3 5 7 2 19 19 -4 4 15 25 14 40 61 11 26 19 11 -3 20 -3 9 10 10 7 2
31 1 -1 35 31 25 -6 14 11 17 52 28 35 -3 19 -2 10 7 2 3 3 3 -3 4 3 8 6 3 4 2 25 15 33 42 22 42 47 32 3 6 28 17 7 15
18 -19 5 19 -10 25 -38 12 15 12 13 11 7 -1 27 3 7 5 0 -4 -3 -2 1 4 4 3 5 3 1 9 4 2 17 30 21 18 37 -1 21 4 20 37 23 -2
8 15 31 -11 42 33 -34 7 9 5 14 9 2 5 2 4 2 1 0 0 -0 -2 -3 -2 1 2 4 2 3 5 3 6 7 2 8 3 8 13 15 43 14 40 38 52
12 12 26 -3 54 4 -23 17 19 -1 -4 4 12 12 -16 -5 -0 -0 1 3 4 5 8 7 5 5 5 4 5 5 6 7 4 5 5 6 4 4 4 6 5 32 29 20
10 5 33 15 16 10 -31 15 15 -2 1 0 4 14 4 16 2 3 4 5 6 8 8 8 8 8 7 6 6 5 6 5 7 7 9 9 7 6 3 5 5 6 5 20
14 5 17 24 12 11 -8 34 27 8 -17 2 2 11 5 12 9 7 8 8 9 9 8 8 10 11 10 6 3 5 6 9 10 9 8 6 5 11 10 5 6 4 6 4
14 -1 0 14 11 -16 5 34 15 15 -12 -2 7 8 7 8 10 7 8 9 8 9 11 14 10 2 2 6 8 7 5 3 5 11 11 11 12 12 7 7 12 7 5 6
17 10 10 7 21 7 12 5 23 4 4 1 7 11 11 10 9 10 9 9 10 9 9 6 5 11 11 11 12 15 18 16 11 7 7 9 8 8 11 13 10 6 7 9
4 8 14 11 3 10 3 5 10 8 -1 4 3 10 11 10 10 10 10 10 9 9 8 8 4 6 5 2 4 4 10 14 14 14 14 12 10 11 11 11 11 15 12 9
5 4 3 20 -5 16 -0 9 9 10 7 9 6 7 7 8 7 8 8 7 6 6 6 5 3 5 3 3 6 5 5 7 6 14 16 13 13 13 15 18 18 14 14 16
8 5 3 -1 3 9 2 13 8 6 4 9 12 8 7 7 7 6 6 6 7 5 5 5 6 6 6 5 4 4 4 5 5 6 15 13 15 18 19 12 12 15 16 16
19 11 8 1 2 6 8 13 12 6 3 7 12 9 6 5 4 2 1 2 2 4 5 6 7 6 6 8 7 6 6 6 6 7 7 14 9 17 18 16 13 13 14 16
Height
3040 3041 3039 3041 3042 3036 3033 3028 3025 3017 3021 3024 3015 3002 3002 2996 3000 2999 3002 3006 3007 3010 3017 3023 3027 3032 3036 3041 3044 3050 3058 3063 3068 3072 3077 3081 3085 3092 3097 3102 3108 3112 3117 3120
3035 3032 3032 3032 3031 3029 3025 3022 3010 3009 3009 3016 3003 2990 2983 2982 2979 2984 2988 2991 2994 2997 3001 3007 3013 3020 3021 3027 3033 3038 3041 3049 3055 3061 3066 3071 3077 3082 3087 3092 3096 3102 3107 3110
3028 3027 3026 3025 3023 3020 3015 3014 3009 3005 2999 2995 2993 2981 2963 2958 2965 2970 2971 2973 2978 2982 2986 2991 2998 3003 3009 3013 3019 3026 3032 3036 3043 3049 3055 3060 3065 3070 3073 3077 3085 3091 3096 3101
3023 3022 3020 3017 3012 3011 3003 3008 3003 2997 2995 2983 2987 2962 2958 2947 2943 2952 2956 2962 2961 2964 2971 2977 2984 2987 2995 2999 3006 3014 3020 3025 3031 3037 3041 3044 3050 3055 3061 3067 3074 3079 3085 3091
3019 3013 3012 3008 3005 3002 2996 2997 2995 2990 2984 2981 2962 2962 2937 2935 2936 2945 2949 2949 2950 2950 2953 2961 2970 2975 2981 2985 2988 2998 3003 3010 3014 3020 3026 3031 3037 3045 3054 3058 3063 3068 3075 3081
3015 3011 3006 3003 2999 2997 2994 2990 2984 2976 2971 2967 2938 2955 2933 2921 2928 2935 2938 2940 2941 2941 2942 2945 2950 2957 2964 2969 2975 2981 2989 2994 3001 3007 3014 3018 3027 3035 3041 3047 3052 3058 3064 3071
3007 3004 3003 3003 2996 2994 2992 2989 2979 2967 2959 2942 2944 2940 2922 2924 2925 2929 2929 2928 2930 2929 2934 2937 2940 2946 2952 2957 2964 2970 2977 2982 2990 2998 3004 3009 3018 3027 3033 3038 3044 3050 3054 3059
3015 2998 3002 2998 2997 2991 2985 2982 2973 2959 2949 2934 2940 2932 2930 2921 2921 2922 2923 2923 2921 2921 2923 2928 2932 2936 2941 2946 2953 2960 2965 2972 2981 2989 2995 3003 3012 3019 3025 3030 3037 3042 3047 3054
3020 3002 3001 2999 2990 2991 2983 2977 2972 2964 2947 2941 2935 2931 2927 2922 2918 2913 2917 2918 2915 2914 2918 2920 2923 2927 2933 2937 2943 2948 2955 2965 2973 2980 2988 2995 3003 3012 3017 3022 3030 3036 3041 3045
3020 3005 3000 2995 2991 2988 2985 2977 2970 2964 2946 2938 2933 2933 2934 2928 2925 2916 2914 2910 2910 2911 2915 2915 2917 2921 2926 2930 2935 2940 2946 2955 2964 2974 2980 2986 2994 3003 3010 3014 3021 3026 3032 3036
3018 3013 3001 2995 2992 2986 2977 2973 2969 2962 2952 2939 2935 2941 2939 2934 2928 2924 2918 2915 2911 2911 2914 2913 2913 2916 2920 2924 2928 2934 2941 2947 2955 2963 2970 2978 2985 2993 3000 3005 3011 3015 3021 3025
3016 3011 3003 2995 2992 2989 2984 2975 2967 2958 2944 2940 2940 2947 2944 2939 2936 2933 2925 2926 2923 2922 2923 2922 2918 2917 2917 2920 2926 2931 2937 2941 2949 2954 2960 2969 2977 2981 2989 2995 3001 3007 3010 3015
3017 3014 3006 2992 2990 2988 2978 2975 2964 2949 2940 2938 2937 2951 2951 2947 2940 2937 2936 2938 2935 2932 2931 2928 2928 2925 2925 2921 2920 2925 2932 2938 2943 2948 2954 2959 2965 2971 2978 2985 2991 2996 3000 3005
3019 3016 3015 3011 3005 2999 2988 2980 2966 2954 2946 2945 2948 2955 2957 2951 2948 2947 2946 2942 2938 2937 2936 2935 2932 2933 2930 2927 2926 2927 2926 2932 2939 2939 2945 2953 2958 2964 2969 2975 2981 2986 2991 2994
3018 3015 3012 3007 3004 3002 2997 2986 2975 2965 2960 2957 2961 2960 2962 2960 2957 2956 2954 2949 2947 2946 2945 2940 2939 2936 2936 2934 2933 2930 2931 2932 2936 2938 2942 2945 2950 2956 2960 2969 2969 2977 2981 2984
3016 3014 3010 3005 3004 2999 2998 2992 2986 2977 2973 2969 2967 2968 2971 2968 2965 2963 2961 2957 2953 2952 2949 2948 2950 2951 2947 2942 2940 2944 2941 2940 2940 2940 2939 2942 2946 2950 2948 2953 2959 2967 2969 2972
3016 3013 3010 3004 3000 2999 3000 2997 2995 2991 2984 2983 2978 2983 2979 2975 2972 2970 2968 2967 2964 2960 2957 2956 2954 2953 2952 2949 2948 2947 2950 2949 2951 2947 2949 2949 2948 2945 2952 2946 2952 2956 2960 2963
3019 3014 3010 3006 3000 3004 3010 3005 3001 2998 2996 2992 2991 2990 2987 2983 2980 2978 2974 2972 2969 2968 2968 2964 2962 2959 2956 2954 2952 2952 2953 2956 2952 2952 2948 2949 2954 2954 2950 2949 2952 2951 2952 2959
3022 3019 3014 3011 3007 3009 3009 3004 3004 3002 3002 2999 2998 2995 2992 2987 2986 2984 2979 2976 2973 2971 2968 2966 2965 2965 2961 2956 2955 2955 2954 2952 2953 2951 2951 2953 2953 2955 2958 2954 2957 2952 2955 2953
3021 3019 3018 3014 3013 3013 3014 3006 3004 3002 3004 3002 3000 2997 2993 2992 2988 2985 2981 2979 2976 2973 2970 2970 2968 2964 2961 2959 2954 2952 2952 2950 2952 2950 2953 2953 2957 2951 2951 2952 2951 2953 2953 2952
3022 3021 3019 3017 3017 3017 3013 3009 3007 3007 3014 3005 3001 2996 2993 2990 2989 2986 2984 2981 2979 2976 2975 2972 2968 2965 2961 2958 2958 2956 2956 2955 2951 2948 2946 2949 2946 2945 2945 2947 2945 2947 2949 2950
3026 3024 3022 3020 3019 3019 3016 3012 3010 3011 3009 3005 3001 2997 2994 2992 2990 2988 2986 2985 2982 2980 2977 2973 2970 2967 2964 2961 2958 2957 2955 2953 2950 2948 2946 2942 2939 2939 2939 2937 2939 2941 2941 2944
3029 3027 3026 3025 3023 3020 3016 3013 3011 3009 3007 3005 3003 2999 2996 2994 2991 2988 2985 2983 2981 2978 2975 2972 2969 2966 2963 2960 2958 2954 2951 2948 2946 2943 2940 2938 2936 2933 2929 2928 2929 2926 2929 2928
3027 3026 3024 3024 3022 3019 3016 3014 3011 3009 3007 3003 3001 2998 2996 2993 2990 2988 2986 2983 2981 2978 2975 2972 2970 2967 2963 2960 2957 2954 2951 2948 2944 2939 2934 2930 2925 2919 2919 2916 2914 2914 2917 2916
3026 3025 3023 3022 3019 3017 3015 3012 3009 3006 3004 3001 2998 2996 2994 2992 2990 2987 2984 2981 2979 2976 2973 2969 2966 2962 2960 2956 2953 2951 2948 2944 2939 2934 2928 2923 2919 2915 2912 2909 2907 2908 2906 2901
3022 3021 3020 3019 3017 3015 3013 3010 3007 3004 3002 2999 2997 2994 2991 2989 2986 2984 2981 2978 2974 2970 2968 2966 2963 2960 2957 2954 2951 2947 2942 2938 2933 2928 2924 2918 2913 2909 2905 2902 2901 2896 2891 2890